Tracking 23731 objects as of 27-Sep-2021
HD Live streaming from Space Station
objects crossing your sky now

STARLINK-2095

Track STARLINK-2095 now!
10-day predictions
STARLINK-2095 is classified as:


NORAD ID: 47679
Int'l Code: 2021-012BM
Perigee: 553.0 km
Apogee: 555.8 km
Inclination: 53.1 °
Period: 95.6 minutes
Semi major axis: 6925 km
RCS: Unknown
Launch date: February 16, 2021
Source: United States (US)
Launch site: AIR FORCE EASTERN TEST RANGE (AFETR)
aabbcc
Your satellite tracking list
Your tracking list is empty




NASA's NSSDC Master Catalog

Two Line Element Set (TLE):
1 47679U 21012BM  21270.12027422 -.00000068  00000-0  14340-4 0  9992
2 47679  53.0559 164.6023 0002059  79.1420 280.9800 15.06391033 34615
Source of the keplerian elements: AFSPC